Погода в Дружбе

Россия / Калининградская область     54°29′24″N   21°11′54″E
темп.,
°C
ветер,
м/с
пор.,
м/с
влажн.,
%
обл.,
%
осадки,
мм/ч
давл.,
гПа
погр.,
м
3 августа, вт
вт323:00+13юз412815 0.0 1008321
02:00+13юз5137915 0.0 1009417
05:00+12юз512882 0.0 1009336
08:00+16зюз610760 0.0 1011706
11:00+20зсз685920 0.3 10121616
14:00+21зсз564973 0.4 10122149
17:00+21сз444555 0.0 10121531
20:00+16ссв256269 0.0 1013152
4 августа, ср
ср423:00+13в227436 0.0 101417
02:00+12вюв227461 0.0 101543
05:00+11вюв2282100 0.0 101516
08:00+16юв1273100 0.0 1015236
11:00+22ю12534 0.0 1015930
14:00+23юз2343100 0.0 10142281
17:00+17зюз2376100 0.3 101465
20:00+16ююз248562 0.6 101494
5 августа, чт
чт523:00+13юз249272 0.0 101469
02:00+13зюз229141 0.0 101436
05:00+12зсз11926 0.0 101310
08:00+17ссв12774 0.0 1013232
11:00+22св34534 0.0 10121163
14:00+24всв444394 0.0 10112292
17:00+21св3663100 0.0 1010210
20:00+18св357469 0.1 100997
6 августа, пт
пт623:00+14всв3118892 0.0 1009322
02:00+12св3119695 0.0 1008386
05:00+11св41098100 0.0 1007408
08:00+15св5781100 0.0 1006540
11:00+18св4569100 0.0 1006859
14:00+18всв3472100 0.1 1006806
17:00+19св2368100 0.1 1006830
20:00+16всв1285100 0.3 100621
7 августа, сб
сб723:00+14ююз119328 0.1 100612
02:00+13юз339555 0.1 100662
05:00+12юз369615 0.0 1006119
08:00+17зюз468123 0.0 1006357
11:00+21зюз566434 0.3 10071237
14:00+24зюз56442 0.6 10062129
17:00+24з46444 0.0 10071949
20:00+19ююз2370100 0.0 100879